Volver al catálogo

SL-16 DEB

ActivoLEO
NORAD 18527·DEBRIS·🇷🇺 Russia

Lanzado Mar 18, 1987 desde Baikonur Cosmodrome

Loading…

Próximos Pases (próximas 24 horas)

TLE

ActualizadoSource: Space-Track

Época: Sep 14, 2026, 14:07 UTC

1 18527U 87027E   26257.58858090  .00000017  00000-0  53406-4 0  9992
2 18527  70.9954 107.5518 0193189 142.2437 219.2404 13.75826415981495

Sigue SL-16 DEB en tiempo real con AllMySat

Download on the App Store